COSMOS 1275 DEB, 12782

Orbit data source: Space-Track

COSMOS 1275 DEB, 12782 is space debris in LEO originally from a launch on Thu, 04 Jun 1981 UTC launched from the Plesetsk Missile And Space Complex (PKMTR). Debris objects in space refer to the collection of defunct objects orbiting the Earth. Examples of debris include non-operational satellites, rocket bodies, and fragments generated from explosions, collisions, or faulty payload assembly.

Loading next visibility...
Identifier
12782, 1981-053DY
Orbit
LEO
Country
Flag of CISCIS
Related business
Manufacturer
Unknown
Mission
Spacecraft
Bus & Motor
Unknown
Mass
Unknown
Launch date (UTC)
1981-06-04 (45 years ago)
Launch vehicle
Unknown
Launch site
Plesetsk Missile And Space Complex (PKMTR)
Object type
Payload
Rocket body
Debris
Shape & HBR
Unknown shape, 0.1 m
Radar Cross Section
Medium (>0.1 m² and <1 m²)

Expand to show TLE details & history
Last TLE update: 10 hours ago

TLE from 10 hours ago
0 COSMOS 1275 DEB
1 12782U 81053DY  26235.99479594  .00000350  00000-0  34721-3 0  9999
2 12782  82.9955  57.5791 0075834  38.6349 115.3466 13.74337637242619
Epoch: 2026-08-23T23:52Z
TLE epoch observation values (Epoch: 2026-08-23T23:52:30.369Z)
Latitude
25.06277°
Longitude
-96.10707°
Altitude
1,011.318 km
Speed
7.336 km/s
True Right ascension
15h 37m 12s
True Declination
24° 56' 08"
Sunlit
Object was in daylight at epoch
Visualization orbit readout
Latitude
Unknown
Longitude
Unknown
Altitude
Unknown
Speed
Unknown
Apparent Right ascension
Unknown
Apparent Declination
Unknown
Sunlit
N/A
Visualization observer readout
Local Sidereal Time
01:26:22
Azimuth
Unknown
Elevation
Unknown
Doppler factor
Unknown
Orbital elements
Apogee altitude
1,036.995 km
Perigee altitude
925.378 km
Semi-major axis
7,359.324 km
Eccentricity
0.00758
Inclination
82.9955°
RAAN
57.5791°
Arg. of periapsis
38.6349°
True anomaly
116.12874°
Mean anomaly
115.3466°
Eccentric anomaly
115.73799°
Mean motion
3.43785 °/min
Orbital period
104.72 mins
BSTAR
0.00034721
Loading maneuver chart data...
Computing Atmospheric mass density...

Documentation

Showing up to 5 results
|